スワン彗星

C/2005 P3 ( SWAN )

English version
Home page
Total 6,336 html files since Dec. 4, 1995
Updated on November 20, 2005

---------------------------------------------------------------------

・ プロフィール

発見日 2005年8月4日
発見光度
発見者 H. Sato (Sukagawa, Fukushima-ken, Japan), M. Suzuki (Utsunomiya, Tochigi, Japan), M. Mattiazzo (Adelaide, S. Australia), M. Jaeger (Vienna, Austria), V. Bezugly (Dnepropetrovsk, Ukraine)

・ 写真集

・ 軌道要素

T 2005 Aug.  9.7453 TT                                  MPC
q   0.525791             (2000.0)            P               Q
z  +0.023832       Peri.   32.1488      -0.3849363      +0.2473365
                   Node   242.7724      -0.9035435      +0.0955034
e   0.987469       Incl.   89.7049      +0.1882370      +0.9642115
>From 54 observations 2005 Aug. 26-Sept. 24.

・ 星図

・ 光度変化

        m1 = 11.0 + 5 logΔ + 10.0 log r  [  ,63]  (              〜2005年10月11日)
        m1 =  5.3 + 5 logΔ + 50   log r  [63,  ]  (2005年10月11日〜              )

---------------------------------------------------------------------

軌道要素はM.P.E.C. 2005-T70に掲載されたものです。
星図は StellaNavigator Ver.2.0 for Windows (アストロアーツ 編著 / アスキー出版局刊) で作成したものです。
光度グラフはComet for Windowsで作成したものです。

---------------------------------------------------------------------

Copyright(C) 1995-2008 Seiichi Yoshida (comet@aerith.net). All rights reserved.